Regional Weather Roundup
Issued by NWS Mobile, AL

Home | Current Version | Previous Version | Text Only | Print | Product List | Glossary Off
Versions: 1 2 3 4 5 6 7 8 9 10 11 12 13 14 15 16 17 18 19 20 21 22 23 24 25 26 27 28

000
ASUS44 KMOB 260110
RWRMOB
REGIONAL WEATHER ROUNDUP
NATIONAL WEATHER SERVICE MOBILE AL
800 PM CDT SAT OCT 25 2014

NOTE: "FAIR" INDICATES FEW OR NO CLOUDS BELOW 12,000 FEET WITH NO
      SIGNIFICANT WEATHER AND/OR OBSTRUCTIONS TO VISIBILITY.

  * THESE STATIONS ARE PART OF THE UNIVERSITY OF SOUTH ALABAMA
    MESONET AND ARE NOT UNDER NWS OR FAA QUALITY CONTROL.

ALZ061>064-260200-
COASTAL ALABAMA

CITY           SKY/WX    TMP DP  RH WIND       PRES   REMARKS
MOBILE REG APT CLEAR     63  59  87 CALM      30.07R
BROOKLEY FIELD CLEAR     62  57  83 W3        30.08R
USA CAMPUS*      N/A     63  57  82 CALM      30.08R
DOG RIVER*     NOT AVBL


CITY           SKY/WX    TMP DP  RH WIND       PRES   REMARKS
MOUNT VERNON*  NOT AVBL
SARALAND*      NOT AVBL
BAY MINETTE*   NOT AVBL
LOXLEY*          N/A     61  54  77 CALM      30.07R
ROBERTSDALE*     N/A     61  55  82 CALM      30.06R
FAIRHOPE*        N/A     63  55  77 CALM      30.05R
ELBERTA*         N/A     59  57  94 CALM      30.05R
FOLEY*           N/A     55  54  94 CALM      30.03R
GRAND BAY*       N/A     61  57  88 CALM      30.05R
DAUPHIN ISLND* NOT AVBL
BON SCOUR NWR* NOT AVBL
GULF SHORES    CLEAR     64  56  74 CALM      30.05S

$$

ALZ051>060-260200-
INTERIOR SOUTHWEST AND SOUTH CENTRAL ALABAMA

CITY           SKY/WX    TMP DP  RH WIND       PRES   REMARKS
GREENVILLE     CLEAR     61  54  77 CALM      30.06R
EVERGREEN      CLEAR     60  54  80 CALM      30.06R
CASTLEBERRY*   NOT AVBL
ATMORE*          N/A     63  55  77 CALM      30.07R
DIXIE*           N/A     63  52  67 CALM      30.04R
ANDALUSIA/OPP  CLEAR     64  52  64 CALM      30.05R
ANDALUSIA*       N/A     66  52  59 NW3       30.05R
FLORALA APT    CLEAR     57  52  83 CALM      30.07R
FLORALA*         N/A     55  54  94 CALM      30.03R

$$

FLZ001>006-260200-
WESTERN FLORIDA PANHANDLE

CITY           SKY/WX    TMP DP  RH WIND       PRES   REMARKS
PENSACOLA      CLEAR     65  51  60 NW3       30.05R
NAS PENSACOLA  CLEAR     61  51  70 NW5       30.05R
MILTON         CLEAR     58  52  80 NW5       30.06R
WHTNG S FIELD  CLEAR     65  53  65 N5        30.05R


CITY           SKY/WX    TMP DP  RH WIND       PRES   REMARKS
WALNUT HILL*   NOT AVBL
JAY*             N/A     64  52  63 CALM      30.06R
DUKE FIELD     CLEAR     59  51  76 CALM      30.04R
CRESTVIEW      CLEAR     56  52  86 CALM      30.06R
VALPARAISO     CLEAR     66  51  57 NW5       30.04R
DESTIN         CLEAR     69  55  60 N5        30.04R

$$

MSZ076-079-260200-
INTERIOR SOUTHEAST MISSISSIPPI

CITY           SKY/WX    TMP DP  RH WIND       PRES   REMARKS
LEAKESVILLE*   NOT AVBL
AGRICOLA*      NOT AVBL

$$

MARINE OBSERVATIONS

STATION/POSITION TIME  TEMP    WIND        PRES    WAVE
                       AIR SEA DIR/SP/G            HT/PER
                 (UTC) (F)     (DEG/KT/KT) (MB)    (FT/S)
PASCAGOULA       0100   70     270/  4/  5 1017.9R
PETIT BOIS ISLND 0100   72     290/ 10/ 11 1018.2R
GRAND BAY        0000   72     300/  4     1018.0S
KATRINA CUT      0000   71     260/  1     1018.0S
CEDAR POINT      0000   71     330/  3     1017.3F
E DAUPHIN ISLAND 0000   73      70/  6/  6 1017.6R
MIDDLE BAY LIGHT 0000   72      20/  6     1016.9R
USCG MOBILE BAY  0100   71 73  320/  3/  4 1016.7R
STATE DOCKS      0100   71 75              1017.7S
MEAHER PARK      0000   69      20/  2     1018.0R
WEEKS BAY        0000   66                   N/A
FORT MORGAN      0100   74      30/  8/ 10 1017.3R
12 S ORANGE BCH  0100   76 78  340/ 10/ 12 1017.2R   1/ 3
PENSACOLA BAY    0100   72 73  360/  2/  4 1017.7R
64 S DAUPHIN ISL 0036   74 78  340/ 12/ 14 1018.5R   2/ 6
67 S FORT MORGAN 2300   73                 1016.9

$$

SELECTED LOCATIONS ACROSS THE REGION

CITY           SKY/WX    TMP DP  RH WIND       PRES   REMARKS
NEW ORLEANS    CLEAR     69  57  65 W3        30.08R
GULFPORT       CLEAR     65  59  81 CALM      30.07R
PASCAGOULA AP  CLEAR     59  57  93 CALM      30.07R
PASCAGOULA*    NOT AVBL
HATTIESBURG    CLEAR     65  62  90 CALM      30.08R
LAUREL         CLEAR     63  57  82 CALM      30.09S
MERIDIAN       CLEAR     63  60  90 CALM      30.07R
JACKSON        CLEAR     64  59  83 CALM      30.08R
MONTGOMERY     CLEAR     65  53  65 W3        30.05S
TROY           CLEAR     57  51  80 CALM      30.06R
KINSTON*       NOT AVBL
GENEVA*          N/A     57  50  77 CALM      30.06R
ASHFORD*         N/A     66  52  59 NW3       30.05R
DOTHAN         CLEAR     64  52  64 NW6       30.07R
PANAMA CITY    CLEAR     59  53  80 CALM      30.03R

$$




USA.gov is the U.S. government's official web portal to all federal, state and local government web resources and services.